Year,Month,Day,Hour,Minute,Value (Times are PST for temperature in C)
2018,08,20,00,00,17.40
2018,08,20,00,01,17.40
2018,08,20,00,02,17.40
2018,08,20,00,03,17.40
2018,08,20,00,04,17.40
2018,08,20,00,05,17.40
2018,08,20,00,06,17.40
2018,08,20,00,07,17.40
2018,08,20,00,08,17.50
2018,08,20,00,09,17.50
2018,08,20,00,10,17.50
2018,08,20,00,11,17.40
2018,08,20,00,12,17.40
2018,08,20,00,13,17.40
2018,08,20,00,14,17.40
2018,08,20,00,15,17.40
2018,08,20,00,16,17.40
2018,08,20,00,17,17.40
2018,08,20,00,18,17.40
2018,08,20,00,19,17.40
2018,08,20,00,20,17.40
2018,08,20,00,21,17.40
2018,08,20,00,22,17.30
2018,08,20,00,23,17.30
2018,08,20,00,24,17.30
2018,08,20,00,25,17.30
2018,08,20,00,26,17.30
2018,08,20,00,27,17.30
2018,08,20,00,28,17.20
2018,08,20,00,29,17.20
2018,08,20,00,30,17.20
2018,08,20,00,31,17.20
2018,08,20,00,32,17.20
2018,08,20,00,33,17.20
2018,08,20,00,34,17.20
2018,08,20,00,35,17.20
2018,08,20,00,36,17.20
2018,08,20,00,37,17.20
2018,08,20,00,38,17.20
2018,08,20,00,39,17.20
2018,08,20,00,40,17.20
2018,08,20,00,41,17.20
2018,08,20,00,42,17.20
2018,08,20,00,43,17.20
2018,08,20,00,44,17.20
2018,08,20,00,45,17.20
2018,08,20,00,46,17.20
2018,08,20,00,47,17.20
2018,08,20,00,48,17.20
2018,08,20,00,49,17.20
2018,08,20,00,50,17.20
2018,08,20,00,51,17.20
2018,08,20,00,52,17.20
2018,08,20,00,53,17.20
2018,08,20,00,54,17.20
2018,08,20,00,55,17.20
2018,08,20,00,56,17.20
2018,08,20,00,57,17.20
2018,08,20,00,58,17.20
2018,08,20,00,59,17.20
2018,08,20,01,00,17.20
2018,08,20,01,01,17.20
2018,08,20,01,02,17.20
2018,08,20,01,03,17.20
2018,08,20,01,04,17.20
2018,08,20,01,05,17.20
2018,08,20,01,06,17.20
2018,08,20,01,07,17.20
2018,08,20,01,08,17.20
2018,08,20,01,09,17.20
2018,08,20,01,10,17.20
2018,08,20,01,11,17.20
2018,08,20,01,12,17.30
2018,08,20,01,13,17.30
2018,08,20,01,14,17.30
2018,08,20,01,15,17.30
2018,08,20,01,16,17.30
2018,08,20,01,17,17.30
2018,08,20,01,18,17.30
2018,08,20,01,19,17.30
2018,08,20,01,20,17.30
2018,08,20,01,21,17.30
2018,08,20,01,22,17.30
2018,08,20,01,23,17.30
2018,08,20,01,24,17.30
2018,08,20,01,25,17.30
2018,08,20,01,26,17.30
2018,08,20,01,27,17.30
2018,08,20,01,28,17.30
2018,08,20,01,29,17.30
2018,08,20,01,30,17.30
2018,08,20,01,31,17.30
2018,08,20,01,32,17.30
2018,08,20,01,33,17.20
2018,08,20,01,34,17.20
2018,08,20,01,35,17.20
2018,08,20,01,36,17.20
2018,08,20,01,37,17.20
2018,08,20,01,38,17.20
2018,08,20,01,39,17.20
2018,08,20,01,40,17.20
2018,08,20,01,41,17.10
2018,08,20,01,42,17.10
2018,08,20,01,43,17.10
2018,08,20,01,44,17.10
2018,08,20,01,45,17.10
2018,08,20,01,46,17.10
2018,08,20,01,47,17.10
2018,08,20,01,48,17.10
2018,08,20,01,49,17.10
2018,08,20,01,50,17.10
2018,08,20,01,51,17.00
2018,08,20,01,52,17.00
2018,08,20,01,53,17.00
2018,08,20,01,54,17.00
2018,08,20,01,55,17.00
2018,08,20,01,56,17.00
2018,08,20,01,57,17.00
2018,08,20,01,58,17.00
2018,08,20,01,59,17.00
2018,08,20,02,00,17.00
2018,08,20,02,01,17.00
2018,08,20,02,02,16.90
2018,08,20,02,03,16.90
2018,08,20,02,04,16.90
2018,08,20,02,05,16.90
2018,08,20,02,06,16.90
2018,08,20,02,07,16.90
2018,08,20,02,08,16.90
2018,08,20,02,09,16.80
2018,08,20,02,10,16.80
2018,08,20,02,11,16.80
2018,08,20,02,12,16.80
2018,08,20,02,13,16.80
2018,08,20,02,14,16.80
2018,08,20,02,15,16.80
2018,08,20,02,16,16.80
2018,08,20,02,17,16.80
2018,08,20,02,18,16.70
2018,08,20,02,19,16.70
2018,08,20,02,20,16.70
2018,08,20,02,21,16.70
2018,08,20,02,22,16.60
2018,08,20,02,23,16.60
2018,08,20,02,24,16.60
2018,08,20,02,25,16.60
2018,08,20,02,26,16.60
2018,08,20,02,27,16.60
2018,08,20,02,28,16.60
2018,08,20,02,29,16.60
2018,08,20,02,30,16.50
2018,08,20,02,31,16.50
2018,08,20,02,32,16.50
2018,08,20,02,33,16.50
2018,08,20,02,34,16.50
2018,08,20,02,35,16.50
2018,08,20,02,36,16.50
2018,08,20,02,37,16.50
2018,08,20,02,38,16.50
2018,08,20,02,39,16.40
2018,08,20,02,40,16.40
2018,08,20,02,41,16.40
2018,08,20,02,42,16.40
2018,08,20,02,43,16.40
2018,08,20,02,44,16.40
2018,08,20,02,45,16.40
2018,08,20,02,46,16.40
2018,08,20,02,47,16.40
2018,08,20,02,48,16.40
2018,08,20,02,49,16.40
2018,08,20,02,50,16.40
2018,08,20,02,51,16.40
2018,08,20,02,52,16.40
2018,08,20,02,53,16.40
2018,08,20,02,54,16.40
2018,08,20,02,55,16.40
2018,08,20,02,56,16.40
2018,08,20,02,57,16.40
2018,08,20,02,58,16.40
2018,08,20,02,59,16.30
2018,08,20,03,00,16.30
2018,08,20,03,01,16.30
2018,08,20,03,02,16.30
2018,08,20,03,03,16.30
2018,08,20,03,04,16.30
2018,08,20,03,05,16.30
2018,08,20,03,06,16.30
2018,08,20,03,07,16.30
2018,08,20,03,08,16.30
2018,08,20,03,09,16.30
2018,08,20,03,10,16.30
2018,08,20,03,11,16.30
2018,08,20,03,12,16.30
2018,08,20,03,13,16.40
2018,08,20,03,14,16.40
2018,08,20,03,15,16.40
2018,08,20,03,16,16.50
2018,08,20,03,17,16.50
2018,08,20,03,18,16.60
2018,08,20,03,19,16.60
2018,08,20,03,20,16.60
2018,08,20,03,21,16.60
2018,08,20,03,22,16.60
2018,08,20,03,23,16.70
2018,08,20,03,24,16.70
2018,08,20,03,25,16.70
2018,08,20,03,26,16.70
2018,08,20,03,27,16.70
2018,08,20,03,28,16.70
2018,08,20,03,29,16.70
2018,08,20,03,30,16.70
2018,08,20,03,31,16.80
2018,08,20,03,32,16.80
2018,08,20,03,33,16.80
2018,08,20,03,34,16.80
2018,08,20,03,35,16.80
2018,08,20,03,36,16.80
2018,08,20,03,37,16.80
2018,08,20,03,38,16.80
2018,08,20,03,39,16.80
2018,08,20,03,40,16.80
2018,08,20,03,41,16.80
2018,08,20,03,42,16.80
2018,08,20,03,43,16.80
2018,08,20,03,44,16.90
2018,08,20,03,45,16.90
2018,08,20,03,46,16.90
2018,08,20,03,47,16.90
2018,08,20,03,48,16.90
2018,08,20,03,49,16.90
2018,08,20,03,50,17.00
2018,08,20,03,51,17.00
2018,08,20,03,52,17.00
2018,08,20,03,53,17.00
2018,08,20,03,54,17.00
2018,08,20,03,55,17.10
2018,08,20,03,56,17.10
2018,08,20,03,57,17.10
2018,08,20,03,58,17.10
2018,08,20,03,59,17.10
2018,08,20,04,00,17.10
2018,08,20,04,01,17.10
2018,08,20,04,02,17.10
2018,08,20,04,03,17.10
2018,08,20,04,04,17.10
2018,08,20,04,05,17.10
2018,08,20,04,06,17.10
2018,08,20,04,07,17.10
2018,08,20,04,08,17.10
2018,08,20,04,09,17.10
2018,08,20,04,10,17.10
2018,08,20,04,11,17.10
2018,08,20,04,12,17.20
2018,08,20,04,13,17.20
2018,08,20,04,14,17.20
2018,08,20,04,15,17.30
2018,08,20,04,16,17.30
2018,08,20,04,17,17.30
2018,08,20,04,18,17.40
2018,08,20,04,19,17.40
2018,08,20,04,20,17.40
2018,08,20,04,21,17.50
2018,08,20,04,22,17.50
2018,08,20,04,23,17.50
2018,08,20,04,24,17.50
2018,08,20,04,25,17.50
2018,08,20,04,26,17.50
2018,08,20,04,27,17.50
2018,08,20,04,28,17.50
2018,08,20,04,29,17.50
2018,08,20,04,30,17.50
2018,08,20,04,31,17.50
2018,08,20,04,32,17.40
2018,08,20,04,33,17.40
2018,08,20,04,34,17.40
2018,08,20,04,35,17.40
2018,08,20,04,36,17.40
2018,08,20,04,37,17.40
2018,08,20,04,38,17.40
2018,08,20,04,39,17.30
2018,08,20,04,40,17.30
2018,08,20,04,41,17.30
2018,08,20,04,42,17.30
2018,08,20,04,43,17.30
2018,08,20,04,44,17.20
2018,08,20,04,45,17.20
2018,08,20,04,46,17.20
2018,08,20,04,47,17.20
2018,08,20,04,48,17.20
2018,08,20,04,49,17.20
2018,08,20,04,50,17.10
2018,08,20,04,51,17.10
2018,08,20,04,52,17.10
2018,08,20,04,53,17.10
2018,08,20,04,54,17.10
2018,08,20,04,55,17.10
2018,08,20,04,56,17.10
2018,08,20,04,57,17.10
2018,08,20,04,58,17.10
2018,08,20,04,59,17.10
2018,08,20,05,00,17.10
2018,08,20,05,01,17.10
2018,08,20,05,02,17.10
2018,08,20,05,03,17.10
2018,08,20,05,04,17.10
2018,08,20,05,05,17.10
2018,08,20,05,06,17.00
2018,08,20,05,07,17.10
2018,08,20,05,08,17.00
2018,08,20,05,09,17.00
2018,08,20,05,10,17.00
2018,08,20,05,11,17.00
2018,08,20,05,12,17.00
2018,08,20,05,13,17.00
2018,08,20,05,14,16.90
2018,08,20,05,15,16.90
2018,08,20,05,16,16.90
2018,08,20,05,17,16.90
2018,08,20,05,18,16.90
2018,08,20,05,19,16.90
2018,08,20,05,20,16.90
2018,08,20,05,21,16.90
2018,08,20,05,22,16.90
2018,08,20,05,23,16.90
2018,08,20,05,24,16.90
2018,08,20,05,25,16.80
2018,08,20,05,26,16.90
2018,08,20,05,27,16.80
2018,08,20,05,28,16.80
2018,08,20,05,29,16.80
2018,08,20,05,30,16.80
2018,08,20,05,31,16.90
2018,08,20,05,32,16.80
2018,08,20,05,33,16.80
2018,08,20,05,34,16.80
2018,08,20,05,35,16.90
2018,08,20,05,36,16.90
2018,08,20,05,37,16.90
2018,08,20,05,38,16.90
2018,08,20,05,39,16.90
2018,08,20,05,40,16.90
2018,08,20,05,41,16.90
2018,08,20,05,42,16.90
2018,08,20,05,43,16.90
2018,08,20,05,44,17.00
2018,08,20,05,45,17.00
2018,08,20,05,46,17.00
2018,08,20,05,47,17.00
2018,08,20,05,48,17.00
2018,08,20,05,49,17.00
2018,08,20,05,50,17.00
2018,08,20,05,51,17.00
2018,08,20,05,52,17.00
2018,08,20,05,53,17.00
2018,08,20,05,54,17.00
2018,08,20,05,55,17.00
2018,08,20,05,56,17.00
2018,08,20,05,57,17.10
2018,08,20,05,58,17.10
2018,08,20,05,59,17.10
2018,08,20,06,00,17.10
2018,08,20,06,01,17.10
2018,08,20,06,02,17.10
2018,08,20,06,03,17.10
2018,08,20,06,04,17.10
2018,08,20,06,05,17.10
2018,08,20,06,06,17.00
2018,08,20,06,07,17.00
2018,08,20,06,08,17.00
2018,08,20,06,09,17.00
2018,08,20,06,10,17.00
2018,08,20,06,11,17.00
2018,08,20,06,12,17.00
2018,08,20,06,13,17.00
2018,08,20,06,14,17.00
2018,08,20,06,15,17.00
2018,08,20,06,16,17.00
2018,08,20,06,17,17.00
2018,08,20,06,18,17.10
2018,08,20,06,19,17.10
2018,08,20,06,20,17.10
2018,08,20,06,21,17.10
2018,08,20,06,22,17.10
2018,08,20,06,23,17.10
2018,08,20,06,24,17.20
2018,08,20,06,25,17.10
2018,08,20,06,26,17.20
2018,08,20,06,27,17.10
2018,08,20,06,28,17.10
2018,08,20,06,29,17.10
2018,08,20,06,30,17.10
2018,08,20,06,31,17.10
2018,08,20,06,32,17.00
2018,08,20,06,33,17.00
2018,08,20,06,34,17.00
2018,08,20,06,35,17.00
2018,08,20,06,36,17.00
2018,08,20,06,37,17.00
2018,08,20,06,38,17.00
2018,08,20,06,39,16.90
2018,08,20,06,40,16.90
2018,08,20,06,41,16.90
2018,08,20,06,42,16.90
2018,08,20,06,43,16.90
2018,08,20,06,44,16.90
2018,08,20,06,45,16.80
2018,08,20,06,46,16.80
2018,08,20,06,47,16.80
2018,08,20,06,48,16.80
2018,08,20,06,49,16.80
2018,08,20,06,50,16.80
2018,08,20,06,51,16.80
2018,08,20,06,52,16.70
2018,08,20,06,53,16.70
2018,08,20,06,54,16.70
2018,08,20,06,55,16.70
2018,08,20,06,56,16.70
2018,08,20,06,57,16.70
2018,08,20,06,58,16.70
2018,08,20,06,59,16.70
2018,08,20,07,00,16.70
2018,08,20,07,01,16.70
2018,08,20,07,02,16.60
2018,08,20,07,03,16.60
2018,08,20,07,04,16.60
2018,08,20,07,05,16.60
2018,08,20,07,06,16.60
2018,08,20,07,07,16.60
2018,08,20,07,08,16.60
2018,08,20,07,09,16.60
2018,08,20,07,10,16.50
2018,08,20,07,11,16.50
2018,08,20,07,12,16.50
2018,08,20,07,13,16.50
2018,08,20,07,14,16.50
2018,08,20,07,15,16.50
2018,08,20,07,16,16.50
2018,08,20,07,17,16.50
2018,08,20,07,18,16.50
2018,08,20,07,19,16.40
2018,08,20,07,20,16.40
2018,08,20,07,21,16.40
2018,08,20,07,22,16.40
2018,08,20,07,23,16.40
2018,08,20,07,24,16.40
2018,08,20,07,25,16.40
2018,08,20,07,26,16.40
2018,08,20,07,27,16.40
2018,08,20,07,28,16.40
2018,08,20,07,29,16.40
2018,08,20,07,30,16.40
2018,08,20,07,31,16.30
2018,08,20,07,32,16.30
2018,08,20,07,33,16.30
2018,08,20,07,34,16.30
2018,08,20,07,35,16.30
2018,08,20,07,36,16.30
2018,08,20,07,37,16.30
2018,08,20,07,38,16.30
2018,08,20,07,39,16.30
2018,08,20,07,40,16.30
2018,08,20,07,41,16.30
2018,08,20,07,42,16.30
2018,08,20,07,43,16.30
2018,08,20,07,44,16.30
2018,08,20,07,45,16.40
2018,08,20,07,46,16.30
2018,08,20,07,47,16.40
2018,08,20,07,48,16.30
2018,08,20,07,49,16.30
2018,08,20,07,50,16.40
2018,08,20,07,51,16.40
2018,08,20,07,52,16.40
2018,08,20,07,53,16.40
2018,08,20,07,54,16.40
2018,08,20,07,55,16.40
2018,08,20,07,56,16.40
2018,08,20,07,57,16.40
2018,08,20,07,58,16.40
2018,08,20,07,59,16.40
2018,08,20,08,00,16.40
2018,08,20,08,01,16.40
2018,08,20,08,02,16.50
2018,08,20,08,03,16.50
2018,08,20,08,04,16.50
2018,08,20,08,05,16.50
2018,08,20,08,06,16.50
2018,08,20,08,07,16.60
2018,08,20,08,08,16.60
2018,08,20,08,09,16.60
2018,08,20,08,10,16.60
2018,08,20,08,11,16.60
2018,08,20,08,12,16.60
2018,08,20,08,13,16.70
2018,08,20,08,14,16.70
2018,08,20,08,15,16.70
2018,08,20,08,16,16.70
2018,08,20,08,17,16.70
2018,08,20,08,18,16.70
2018,08,20,08,19,16.70
2018,08,20,08,20,16.70
2018,08,20,08,21,16.80
2018,08,20,08,22,16.80
2018,08,20,08,23,16.80
2018,08,20,08,24,16.80
2018,08,20,08,25,16.80
2018,08,20,08,26,16.80
2018,08,20,08,27,16.90
2018,08,20,08,28,16.90
2018,08,20,08,29,16.90
2018,08,20,08,30,16.90
2018,08,20,08,31,16.90
2018,08,20,08,32,16.90
2018,08,20,08,33,16.90
2018,08,20,08,34,16.90
2018,08,20,08,35,17.00
2018,08,20,08,36,17.00
2018,08,20,08,37,17.00
2018,08,20,08,38,17.00
2018,08,20,08,39,17.00
2018,08,20,08,40,17.00
2018,08,20,08,41,17.00
2018,08,20,08,42,17.00
2018,08,20,08,43,17.00
2018,08,20,08,44,17.00
2018,08,20,08,45,17.10
2018,08,20,08,46,17.10
2018,08,20,08,47,17.10
2018,08,20,08,48,17.10
2018,08,20,08,49,17.10
2018,08,20,08,50,17.10
2018,08,20,08,51,17.10
2018,08,20,08,52,17.10
2018,08,20,08,53,17.10
2018,08,20,08,54,17.10
2018,08,20,08,55,17.10
2018,08,20,08,56,17.10
2018,08,20,08,57,17.10
2018,08,20,08,58,17.10
2018,08,20,08,59,17.10
2018,08,20,09,00,17.10
2018,08,20,09,01,17.10
2018,08,20,09,02,17.10
2018,08,20,09,03,17.10
2018,08,20,09,04,17.10
2018,08,20,09,05,17.10
2018,08,20,09,06,17.10
2018,08,20,09,07,17.20
2018,08,20,09,08,17.20
2018,08,20,09,09,17.20
2018,08,20,09,10,17.20
2018,08,20,09,11,17.20
2018,08,20,09,12,17.20
2018,08,20,09,13,17.20
2018,08,20,09,14,17.20
2018,08,20,09,15,17.10
2018,08,20,09,16,17.10
2018,08,20,09,17,17.10
2018,08,20,09,18,17.10
2018,08,20,09,19,17.10
2018,08,20,09,20,17.10
2018,08,20,09,21,17.10
2018,08,20,09,22,17.10
2018,08,20,09,23,17.10
2018,08,20,09,24,17.10
2018,08,20,09,25,17.10
2018,08,20,09,26,17.10
2018,08,20,09,27,17.20
2018,08,20,09,28,17.20
2018,08,20,09,29,17.20
2018,08,20,09,30,17.20
2018,08,20,09,31,17.20
2018,08,20,09,32,17.20
2018,08,20,09,33,17.20
2018,08,20,09,34,17.20
2018,08,20,09,35,17.20
2018,08,20,09,36,17.20
2018,08,20,09,37,17.20
2018,08,20,09,38,17.20
2018,08,20,09,39,17.20
2018,08,20,09,40,17.20
2018,08,20,09,41,17.30
2018,08,20,09,42,17.30
2018,08,20,09,43,17.30
2018,08,20,09,44,17.30
2018,08,20,09,45,17.30
2018,08,20,09,46,17.30
2018,08,20,09,47,17.30
2018,08,20,09,48,17.30
2018,08,20,09,49,17.30
2018,08,20,09,50,17.30
2018,08,20,09,51,17.30
2018,08,20,09,52,17.30
2018,08,20,09,53,17.30
2018,08,20,09,54,17.30
2018,08,20,09,55,17.30
2018,08,20,09,56,17.40
2018,08,20,09,57,17.40
2018,08,20,09,58,17.40
2018,08,20,09,59,17.40
2018,08,20,10,00,17.40
2018,08,20,10,01,17.40
2018,08,20,10,02,17.40
2018,08,20,10,03,17.40
2018,08,20,10,04,17.50
2018,08,20,10,05,17.50
2018,08,20,10,06,17.50
2018,08,20,10,07,17.50
2018,08,20,10,08,17.60
2018,08,20,10,09,17.60
2018,08,20,10,10,17.60
2018,08,20,10,11,17.60
2018,08,20,10,12,17.60
2018,08,20,10,13,17.50
2018,08,20,10,14,17.50
2018,08,20,10,15,17.60
2018,08,20,10,16,17.60
2018,08,20,10,17,17.60
2018,08,20,10,18,17.70
2018,08,20,10,19,17.70
2018,08,20,10,20,17.80
2018,08,20,10,21,17.80
2018,08,20,10,22,17.80
2018,08,20,10,23,17.90
2018,08,20,10,24,17.90
2018,08,20,10,25,17.90
2018,08,20,10,26,18.00
2018,08,20,10,27,18.00
2018,08,20,10,28,18.00
2018,08,20,10,29,18.10
2018,08,20,10,30,18.10
2018,08,20,10,31,18.20
2018,08,20,10,32,18.20
2018,08,20,10,33,18.20
2018,08,20,10,34,18.20
2018,08,20,10,35,18.30
2018,08,20,10,36,18.30
2018,08,20,10,37,18.40
2018,08,20,10,38,18.40
2018,08,20,10,39,18.40
2018,08,20,10,40,18.40
2018,08,20,10,41,18.50
2018,08,20,10,42,18.60
2018,08,20,10,43,18.60
2018,08,20,10,44,18.60
2018,08,20,10,45,18.70
2018,08,20,10,46,18.70
2018,08,20,10,47,18.80
2018,08,20,10,48,18.80
2018,08,20,10,49,18.90
2018,08,20,10,50,18.90
2018,08,20,10,51,19.00
2018,08,20,10,52,19.00
2018,08,20,10,53,19.10
2018,08,20,10,54,19.10
2018,08,20,10,55,19.20
2018,08,20,10,56,19.30
2018,08,20,10,57,19.30
2018,08,20,10,58,19.40
2018,08,20,10,59,19.50
2018,08,20,11,00,19.60
2018,08,20,11,01,19.60
2018,08,20,11,02,19.70
2018,08,20,11,03,19.80
2018,08,20,11,04,19.80
2018,08,20,11,05,19.90
2018,08,20,11,06,19.90
2018,08,20,11,07,19.90
2018,08,20,11,08,20.00
2018,08,20,11,09,20.00
2018,08,20,11,10,20.00
2018,08,20,11,11,20.10
2018,08,20,11,12,20.10
2018,08,20,11,13,20.20
2018,08,20,11,14,20.20
2018,08,20,11,15,20.20
2018,08,20,11,16,20.30
2018,08,20,11,17,20.30
2018,08,20,11,18,20.30
2018,08,20,11,19,20.30
2018,08,20,11,20,20.40
2018,08,20,11,21,20.40
2018,08,20,11,22,20.50
2018,08,20,11,23,20.60
2018,08,20,11,24,20.60
2018,08,20,11,25,20.70
2018,08,20,11,26,20.70
2018,08,20,11,27,20.80
2018,08,20,11,28,20.80
2018,08,20,11,29,20.80
2018,08,20,11,30,20.90
2018,08,20,11,31,20.90
2018,08,20,11,32,21.00
2018,08,20,11,33,21.10
2018,08,20,11,34,21.10
2018,08,20,11,35,21.10
2018,08,20,11,36,21.20
2018,08,20,11,37,21.20
2018,08,20,11,38,21.30
2018,08,20,11,39,21.30
2018,08,20,11,40,21.40
2018,08,20,11,41,21.40
2018,08,20,11,42,21.40
2018,08,20,11,43,21.50
2018,08,20,11,44,21.50
2018,08,20,11,45,21.50
2018,08,20,11,46,21.50
2018,08,20,11,47,21.50
2018,08,20,11,48,21.50
2018,08,20,11,49,21.40
2018,08,20,11,50,21.40
2018,08,20,11,51,21.40
2018,08,20,11,52,21.40
2018,08,20,11,53,21.40
2018,08,20,11,54,21.40
2018,08,20,11,55,21.50
2018,08,20,11,56,21.50
2018,08,20,11,57,21.50
2018,08,20,11,58,21.50
2018,08,20,11,59,21.60
2018,08,20,12,00,21.60
2018,08,20,12,01,21.60
2018,08,20,12,02,21.60
2018,08,20,12,03,21.60
2018,08,20,12,04,21.60
2018,08,20,12,05,21.60
2018,08,20,12,06,21.50
2018,08,20,12,07,21.50
2018,08,20,12,08,21.50
2018,08,20,12,09,21.50
2018,08,20,12,10,21.60
2018,08,20,12,11,21.60
2018,08,20,12,12,21.70
2018,08,20,12,13,21.70
2018,08,20,12,14,21.80
2018,08,20,12,15,21.80
2018,08,20,12,16,21.80
2018,08,20,12,17,21.90
2018,08,20,12,18,21.90
2018,08,20,12,19,22.00
2018,08,20,12,20,22.00
2018,08,20,12,21,22.00
2018,08,20,12,22,22.00
2018,08,20,12,23,22.00
2018,08,20,12,24,22.00
2018,08,20,12,25,22.00
2018,08,20,12,26,22.00
2018,08,20,12,27,22.00
2018,08,20,12,28,22.00
2018,08,20,12,29,22.00
2018,08,20,12,30,22.00
2018,08,20,12,31,22.00
2018,08,20,12,32,22.00
2018,08,20,12,33,22.10
2018,08,20,12,34,22.10
2018,08,20,12,35,22.20
2018,08,20,12,36,22.20
2018,08,20,12,37,22.20
2018,08,20,12,38,22.20
2018,08,20,12,39,22.30
2018,08,20,12,40,22.30
2018,08,20,12,41,22.30
2018,08,20,12,42,22.30
2018,08,20,12,43,22.40
2018,08,20,12,44,22.40
2018,08,20,12,45,22.40
2018,08,20,12,46,22.40
2018,08,20,12,47,22.40
2018,08,20,12,48,22.50
2018,08,20,12,49,22.50
2018,08,20,12,50,22.50
2018,08,20,12,51,22.50
2018,08,20,12,52,22.60
2018,08,20,12,53,22.70
2018,08,20,12,54,22.70
2018,08,20,12,55,22.70
2018,08,20,12,56,22.80
2018,08,20,12,57,22.80
2018,08,20,12,58,22.70
2018,08,20,12,59,22.70
2018,08,20,13,00,22.70
2018,08,20,13,01,22.70
2018,08,20,13,02,22.70
2018,08,20,13,03,22.70
2018,08,20,13,04,22.70
2018,08,20,13,05,22.70
2018,08,20,13,06,22.70
2018,08,20,13,07,22.70
2018,08,20,13,08,22.70
2018,08,20,13,09,22.60
2018,08,20,13,10,22.60
2018,08,20,13,11,22.50
2018,08,20,13,12,22.50
2018,08,20,13,13,22.50
2018,08,20,13,14,22.40
2018,08,20,13,15,22.40
2018,08,20,13,16,22.40
2018,08,20,13,17,22.40
2018,08,20,13,18,22.40
2018,08,20,13,19,22.40
2018,08,20,13,20,22.40
2018,08,20,13,21,22.40
2018,08,20,13,22,22.30
2018,08,20,13,23,22.30
2018,08,20,13,24,22.30
2018,08,20,13,25,22.30
2018,08,20,13,26,22.30
2018,08,20,13,27,22.30
2018,08,20,13,28,22.20
2018,08,20,13,29,22.20
2018,08,20,13,30,22.20
2018,08,20,13,31,22.20
2018,08,20,13,32,22.20
2018,08,20,13,33,22.20
2018,08,20,13,34,22.20
2018,08,20,13,35,22.20
2018,08,20,13,36,22.30
2018,08,20,13,37,22.50
2018,08,20,13,38,22.60
2018,08,20,13,39,22.80
2018,08,20,13,40,22.90
2018,08,20,13,41,23.00
2018,08,20,13,42,23.10
2018,08,20,13,43,23.20
2018,08,20,13,44,23.30
2018,08,20,13,47,23.70
2018,08,20,13,48,23.80
2018,08,20,13,49,24.00
2018,08,20,13,50,24.20
2018,08,20,13,51,24.50
2018,08,20,13,54,25.20
2018,08,20,13,55,25.30
2018,08,20,13,56,25.40
2018,08,20,13,57,25.60
2018,08,20,13,58,25.80
2018,08,20,13,59,25.90
2018,08,20,14,02,26.30
2018,08,20,14,03,26.30
2018,08,20,14,04,26.40
2018,08,20,14,05,26.40
2018,08,20,14,06,26.50
2018,08,20,14,10,26.60
2018,08,20,14,11,26.70
2018,08,20,14,12,26.80
2018,08,20,14,13,26.90
2018,08,20,14,14,26.90
2018,08,20,14,15,27.00
2018,08,20,14,16,27.10
2018,08,20,14,17,27.10
2018,08,20,14,18,27.20
2018,08,20,14,19,27.20
2018,08,20,14,20,27.20
2018,08,20,14,21,27.30
2018,08,20,14,22,27.30
2018,08,20,14,23,27.20
2018,08,20,14,24,27.10
2018,08,20,14,25,27.00
2018,08,20,14,26,26.80
2018,08,20,14,27,26.70
2018,08,20,14,28,26.60
2018,08,20,14,29,26.50
2018,08,20,14,30,26.40
2018,08,20,14,31,26.30
2018,08,20,14,32,26.20
2018,08,20,14,33,26.10
2018,08,20,14,34,26.10
2018,08,20,14,35,26.00
2018,08,20,14,36,25.90
2018,08,20,14,37,25.80
2018,08,20,14,38,25.70
2018,08,20,14,39,25.60
2018,08,20,14,40,25.60
2018,08,20,14,41,25.60
2018,08,20,14,42,25.50
2018,08,20,14,43,25.50
2018,08,20,14,44,25.40
2018,08,20,14,45,25.30
2018,08,20,14,46,25.00
2018,08,20,14,47,24.80
2018,08,20,14,48,24.60
2018,08,20,14,49,24.50
2018,08,20,14,50,24.40
2018,08,20,14,51,24.40
2018,08,20,14,52,24.40
2018,08,20,14,53,24.30
2018,08,20,14,54,24.20
2018,08,20,14,55,24.10
2018,08,20,14,56,24.00
2018,08,20,14,57,24.00
2018,08,20,14,58,23.90
2018,08,20,14,59,23.80
2018,08,20,15,00,23.80
2018,08,20,15,01,23.80
2018,08,20,15,02,23.80
2018,08,20,15,03,23.80
2018,08,20,15,04,23.80
2018,08,20,15,05,23.90
2018,08,20,15,06,23.90
2018,08,20,15,07,24.00
2018,08,20,15,08,24.20
2018,08,20,15,53,25.60
2018,08,20,15,54,25.60
2018,08,20,15,55,25.60
2018,08,20,15,56,25.50
2018,08,20,15,57,25.50
2018,08,20,15,58,25.40
2018,08,20,15,59,25.20
2018,08,20,16,00,25.10
2018,08,20,16,01,24.90
2018,08,20,16,02,24.80
2018,08,20,16,03,24.70
2018,08,20,16,04,24.50
2018,08,20,16,05,24.40
2018,08,20,16,06,24.30
2018,08,20,16,07,24.20
2018,08,20,16,08,24.20
2018,08,20,16,09,24.20
2018,08,20,16,10,24.20
2018,08,20,16,11,24.20
2018,08,20,16,12,24.10
2018,08,20,16,13,24.10
2018,08,20,16,14,24.10
2018,08,20,16,15,24.10
2018,08,20,16,16,24.10
2018,08,20,16,17,24.10
2018,08,20,16,18,24.10
2018,08,20,16,19,24.20
2018,08,20,16,20,24.30
2018,08,20,16,21,24.30
2018,08,20,16,22,24.30
2018,08,20,16,23,24.40
2018,08,20,16,24,24.40
2018,08,20,16,25,24.50
2018,08,20,16,26,24.60
2018,08,20,16,27,24.60
2018,08,20,16,28,24.70
2018,08,20,16,29,24.80
2018,08,20,16,30,24.90
2018,08,20,16,31,25.00
2018,08,20,16,32,25.10
2018,08,20,16,33,25.30
2018,08,20,16,34,25.50
2018,08,20,16,35,25.60
2018,08,20,16,36,25.80
2018,08,20,16,37,26.00
2018,08,20,16,38,26.10
2018,08,20,16,39,26.20
2018,08,20,16,40,26.30
2018,08,20,16,41,26.40
2018,08,20,16,42,26.60
2018,08,20,16,43,26.70
2018,08,20,16,44,26.80
2018,08,20,16,45,27.00
2018,08,20,16,46,27.20
2018,08,20,16,47,27.40
2018,08,20,16,48,27.40
2018,08,20,16,49,27.40
2018,08,20,16,50,27.30
2018,08,20,16,51,27.30
2018,08,20,16,52,27.20
2018,08,20,16,53,27.30
2018,08,20,16,54,27.30
2018,08,20,16,55,27.30
2018,08,20,16,56,27.40
2018,08,20,16,57,27.50
2018,08,20,16,58,27.50
2018,08,20,16,59,27.60
2018,08,20,17,00,27.70
2018,08,20,17,01,27.80
2018,08,20,17,02,27.80
2018,08,20,17,03,27.90
2018,08,20,17,04,28.10
2018,08,20,17,05,28.20
2018,08,20,17,06,28.30
2018,08,20,17,07,28.40
2018,08,20,17,08,28.50
2018,08,20,17,09,28.70
2018,08,20,17,10,28.80
2018,08,20,17,11,28.80
2018,08,20,17,12,28.90
2018,08,20,17,13,29.00
2018,08,20,17,14,29.00
2018,08,20,17,15,29.10
2018,08,20,17,16,29.10
2018,08,20,17,17,29.10
2018,08,20,17,18,29.10
2018,08,20,17,19,29.10
2018,08,20,17,20,29.10
2018,08,20,17,21,29.20
2018,08,20,17,22,29.20
2018,08,20,17,23,29.20
2018,08,20,17,24,29.20
2018,08,20,17,25,29.20
2018,08,20,17,26,29.30
2018,08,20,17,27,29.30
2018,08,20,17,28,29.30
2018,08,20,17,29,29.40
2018,08,20,17,30,29.40
2018,08,20,17,31,29.40
2018,08,20,17,32,29.30
2018,08,20,17,33,29.30
2018,08,20,17,34,29.30
2018,08,20,17,35,29.30
2018,08,20,17,36,29.30
2018,08,20,17,37,29.30
2018,08,20,17,38,29.20
2018,08,20,17,39,29.10
2018,08,20,17,40,29.10
2018,08,20,17,41,29.00
2018,08,20,17,42,28.90
2018,08,20,17,43,28.90
2018,08,20,17,44,28.90
2018,08,20,17,45,29.00
2018,08,20,17,46,29.00
2018,08,20,17,47,29.00
2018,08,20,17,48,29.00
2018,08,20,17,49,29.00
2018,08,20,17,50,29.00
2018,08,20,17,51,28.90
2018,08,20,17,52,28.90
2018,08,20,17,53,28.90
2018,08,20,17,54,28.90
2018,08,20,17,55,29.00
2018,08,20,17,56,29.00
2018,08,20,17,57,29.10
2018,08,20,17,58,29.10
2018,08,20,17,59,29.10
2018,08,20,18,00,29.20
2018,08,20,18,01,29.20
2018,08,20,18,02,29.20
2018,08,20,18,03,29.20
2018,08,20,18,04,29.20
2018,08,20,18,05,29.20
2018,08,20,18,06,29.10
2018,08,20,18,07,29.10
2018,08,20,18,08,29.10
2018,08,20,18,09,29.10
2018,08,20,18,10,29.10
2018,08,20,18,11,29.00
2018,08,20,18,12,28.80